User: anonymous   Login
Location: Unspecified
(0.0000°N, 0.0000°E)
Time: 15:29:51
(UTC+00:00)
Language:

UWE-2 - Orbit

View from above orbital plane
View from above orbital plane
View from above satellite
View from above satellite

Ground track
Ground track

The orbit data is extracted from the following two-line orbital elements,

1 35934U 09051D   17323.91408580 +.00000122 +00000-0 +38920-4 0  9991
2 35934 098.5126 103.9154 0007275 142.0175 218.1536 14.55711068432914
Epoch (UTC): 19 November 2017 21:56:17
Eccentricity: 0.0007275
inclination: 98.5126°
perigee height: 702 km
apogee height: 712 km
right ascension of ascending node: 103.9154°
argument of perigee: 142.0175°
revolutions per day: 14.55711068
mean anomaly at epoch: 218.1536°
orbit number at epoch: 43291

The dashed part of the orbit path shows where the satellite is in the earth's shadow,  

DLR